owner,sensor,date,latitude,longitude,vertical_datum,sea_water_practical_salinity,qcFlag 
DISL,ioos:station:DISL:MHPA:1,2013-12-01T00:00:00Z,30.6671,-87.9365,3.84,6.03,1111122 
DISL,ioos:station:DISL:MHPA:1,2013-12-01T00:30:00Z,30.6671,-87.9365,3.911,6.05,1111122 
DISL,ioos:station:DISL:MHPA:1,2013-12-01T01:00:00Z,30.6671,-87.9365,3.985,6.06,1111122 
DISL,ioos:station:DISL:MHPA:1,2013-12-01T01:30:00Z,30.6671,-87.9365,4.06,6.03,1111122 
DISL,ioos:station:DISL:MHPA:1,2013-12-01T02:00:00Z,30.6671,-87.9365,4.092,5.96,1111122 
DISL,ioos:station:DISL:MHPA:1,2013-12-01T02:30:00Z,30.6671,-87.9365,4.123,5.99,1111122 
DISL,ioos:station:DISL:MHPA:1,2013-12-01T03:00:00Z,30.6671,-87.9365,4.19,6.06,1111122 
DISL,ioos:station:DISL:MHPA:1,2013-12-01T03:30:00Z,30.6671,-87.9365,4.17,5.96,1111122 
DISL,ioos:station:DISL:MHPA:1,2013-12-01T04:00:00Z,30.6671,-87.9365,4.084,5.96,1111122 
DISL,ioos:station:DISL:MHPA:1,2013-12-01T04:30:00Z,30.6671,-87.9365,4.042,6.12,1111122 
DISL,ioos:station:DISL:MHPA:1,2013-12-01T05:00:00Z,30.6671,-87.9365,3.933,6.03,1111122 
DISL,ioos:station:DISL:MHPA:1,2013-12-01T05:30:00Z,30.6671,-87.9365,3.817,6.17,1111122 
DISL,ioos:station:DISL:MHPA:1,2013-12-01T06:00:00Z,30.6671,-87.9365,3.713,6.23,1111122 
DISL,ioos:station:DISL:MHPA:1,2013-12-01T06:30:00Z,30.6671,-87.9365,3.599,6.2,1111122 
DISL,ioos:station:DISL:MHPA:1,2013-12-01T07:00:00Z,30.6671,-87.9365,3.454,6.08,1111122 
DISL,ioos:station:DISL:MHPA:1,2013-12-01T07:30:00Z,30.6671,-87.9365,3.327,6.19,1111122 
DISL,ioos:station:DISL:MHPA:1,2013-12-01T08:00:00Z,30.6671,-87.9365,3.208,6.1,1111122 
DISL,ioos:station:DISL:MHPA:1,2013-12-01T08:30:00Z,30.6671,-87.9365,3.071,6.19,1111122 
DISL,ioos:station:DISL:MHPA:1,2013-12-01T09:00:00Z,30.6671,-87.9365,2.948,6.09,1111122 
DISL,ioos:station:DISL:MHPA:1,2013-12-01T09:30:00Z,30.6671,-87.9365,2.827,6.14,1111122 
DISL,ioos:station:DISL:MHPA:1,2013-12-01T10:00:00Z,30.6671,-87.9365,2.723,6.4,1111122 
DISL,ioos:station:DISL:MHPA:1,2013-12-01T10:30:00Z,30.6671,-87.9365,2.627,6.23,1111122 
DISL,ioos:station:DISL:MHPA:1,2013-12-01T11:00:00Z,30.6671,-87.9365,2.536,6.21,1111122 
DISL,ioos:station:DISL:MHPA:1,2013-12-01T11:30:00Z,30.6671,-87.9365,2.456,6.18,1111122 
DISL,ioos:station:DISL:MHPA:1,2013-12-01T12:00:00Z,30.6671,-87.9365,2.383,6.08,1111122 
DISL,ioos:station:DISL:MHPA:1,2013-12-01T12:30:00Z,30.6671,-87.9365,2.314,6.24,1111122 
DISL,ioos:station:DISL:MHPA:1,2013-12-01T13:00:00Z,30.6671,-87.9365,2.252,6.35,1111122 
DISL,ioos:station:DISL:MHPA:1,2013-12-01T13:30:00Z,30.6671,-87.9365,2.194,6.15,1111122 
DISL,ioos:station:DISL:MHPA:1,2013-12-01T14:00:00Z,30.6671,-87.9365,2.145,6.13,1111122 
DISL,ioos:station:DISL:MHPA:1,2013-12-01T14:30:00Z,30.6671,-87.9365,2.103,6.16,1111122 
DISL,ioos:station:DISL:MHPA:1,2013-12-01T15:00:00Z,30.6671,-87.9365,2.066,6.1,1111122 
DISL,ioos:station:DISL:MHPA:1,2013-12-01T15:30:00Z,30.6671,-87.9365,2.055,5.95,1111122 
DISL,ioos:station:DISL:MHPA:1,2013-12-01T16:00:00Z,30.6671,-87.9365,2.092,6.13,1111122 
DISL,ioos:station:DISL:MHPA:1,2013-12-01T16:30:00Z,30.6671,-87.9365,2.164,6.22,1111122 
DISL,ioos:station:DISL:MHPA:1,2013-12-01T17:00:00Z,30.6671,-87.9365,2.284,6.31,1111122 
DISL,ioos:station:DISL:MHPA:1,2013-12-01T17:30:00Z,30.6671,-87.9365,2.445,6.14,1111122 
DISL,ioos:station:DISL:MHPA:1,2013-12-01T18:00:00Z,30.6671,-87.9365,2.666,5.95,1111122 
DISL,ioos:station:DISL:MHPA:1,2013-12-01T18:30:00Z,30.6671,-87.9365,2.921,5.82,1111122 
DISL,ioos:station:DISL:MHPA:1,2013-12-01T19:00:00Z,30.6671,-87.9365,3.098,5.98,1111122 
DISL,ioos:station:DISL:MHPA:1,2013-12-01T19:30:00Z,30.6671,-87.9365,3.187,6.08,1111122 
DISL,ioos:station:DISL:MHPA:1,2013-12-01T20:00:00Z,30.6671,-87.9365,3.314,6.01,1111122 
DISL,ioos:station:DISL:MHPA:1,2013-12-01T20:30:00Z,30.6671,-87.9365,3.458,5.75,1111122 
DISL,ioos:station:DISL:MHPA:1,2013-12-01T21:00:00Z,30.6671,-87.9365,3.532,5.98,1111122 
DISL,ioos:station:DISL:MHPA:1,2013-12-01T21:30:00Z,30.6671,-87.9365,3.685,6.04,1111122 
DISL,ioos:station:DISL:MHPA:1,2013-12-01T22:00:00Z,30.6671,-87.9365,3.788,5.9,1111122 
DISL,ioos:station:DISL:MHPA:1,2013-12-01T22:30:00Z,30.6671,-87.9365,3.886,5.93,1111122 
DISL,ioos:station:DISL:MHPA:1,2013-12-01T23:00:00Z,30.6671,-87.9365,4.035,5.87,1111122 
DISL,ioos:station:DISL:MHPA:1,2013-12-01T23:30:00Z,30.6671,-87.9365,4.145,5.91,1111122 
DISL,ioos:station:DISL:MHPA:1,2013-12-02T00:00:00Z,30.6671,-87.9365,4.221,5.71,1111122 
DISL,ioos:station:DISL:MHPA:1,2013-12-02T00:30:00Z,30.6671,-87.9365,4.341,5.72,1111122 
DISL,ioos:station:DISL:MHPA:1,2013-12-02T01:00:00Z,30.6671,-87.9365,4.45,5.56,1111122 
DISL,ioos:station:DISL:MHPA:1,2013-12-02T01:30:00Z,30.6671,-87.9365,4.515,5.72,1111122 
DISL,ioos:station:DISL:MHPA:1,2013-12-02T02:00:00Z,30.6671,-87.9365,4.611,5.87,1111122 
DISL,ioos:station:DISL:MHPA:1,2013-12-02T02:30:00Z,30.6671,-87.9365,4.716,5.62,1111122 
DISL,ioos:station:DISL:MHPA:1,2013-12-02T03:00:00Z,30.6671,-87.9365,4.762,5.85,1111122 
DISL,ioos:station:DISL:MHPA:1,2013-12-02T03:30:00Z,30.6671,-87.9365,4.8,5.76,1111122 
DISL,ioos:station:DISL:MHPA:1,2013-12-02T04:00:00Z,30.6671,-87.9365,4.81,5.94,1111122 
DISL,ioos:station:DISL:MHPA:1,2013-12-02T04:30:00Z,30.6671,-87.9365,4.763,5.79,1111122 
DISL,ioos:station:DISL:MHPA:1,2013-12-02T05:00:00Z,30.6671,-87.9365,4.702,5.9,1111122 
DISL,ioos:station:DISL:MHPA:1,2013-12-02T05:30:00Z,30.6671,-87.9365,4.601,5.91,1111122 
DISL,ioos:station:DISL:MHPA:1,2013-12-02T06:00:00Z,30.6671,-87.9365,4.488,5.68,1111122 
DISL,ioos:station:DISL:MHPA:1,2013-12-02T06:30:00Z,30.6671,-87.9365,4.332,5.68,1111122 
DISL,ioos:station:DISL:MHPA:1,2013-12-02T07:00:00Z,30.6671,-87.9365,4.172,5.75,1111122 
DISL,ioos:station:DISL:MHPA:1,2013-12-02T07:30:00Z,30.6671,-87.9365,4.001,5.62,1111122 
DISL,ioos:station:DISL:MHPA:1,2013-12-02T08:00:00Z,30.6671,-87.9365,3.846,5.72,1111122 
DISL,ioos:station:DISL:MHPA:1,2013-12-02T08:30:00Z,30.6671,-87.9365,3.691,5.65,1111122 
DISL,ioos:station:DISL:MHPA:1,2013-12-02T09:00:00Z,30.6671,-87.9365,3.526,5.71,1111122 
DISL,ioos:station:DISL:MHPA:1,2013-12-02T09:30:00Z,30.6671,-87.9365,3.383,5.55,1111122 
DISL,ioos:station:DISL:MHPA:1,2013-12-02T10:00:00Z,30.6671,-87.9365,3.261,5.69,1111122 
DISL,ioos:station:DISL:MHPA:1,2013-12-02T10:30:00Z,30.6671,-87.9365,3.135,5.67,1111122 
DISL,ioos:station:DISL:MHPA:1,2013-12-02T11:00:00Z,30.6671,-87.9365,3.033,5.75,1111122 
DISL,ioos:station:DISL:MHPA:1,2013-12-02T11:30:00Z,30.6671,-87.9365,2.921,5.78,1111122 
DISL,ioos:station:DISL:MHPA:1,2013-12-02T12:00:00Z,30.6671,-87.9365,2.807,5.7,1111122 
DISL,ioos:station:DISL:MHPA:1,2013-12-02T12:30:00Z,30.6671,-87.9365,2.717,5.67,1111122 
DISL,ioos:station:DISL:MHPA:1,2013-12-02T13:00:00Z,30.6671,-87.9365,2.634,5.88,1111122 
DISL,ioos:station:DISL:MHPA:1,2013-12-02T13:30:00Z,30.6671,-87.9365,2.555,5.94,1111122 
DISL,ioos:station:DISL:MHPA:1,2013-12-02T14:00:00Z,30.6671,-87.9365,2.488,6.06,1111122 
DISL,ioos:station:DISL:MHPA:1,2013-12-02T14:30:00Z,30.6671,-87.9365,2.43,5.67,1111122 
DISL,ioos:station:DISL:MHPA:1,2013-12-02T15:00:00Z,30.6671,-87.9365,2.373,5.38,1111122 
DISL,ioos:station:DISL:MHPA:1,2013-12-02T15:30:00Z,30.6671,-87.9365,2.327,5.81,1111122 
DISL,ioos:station:DISL:MHPA:1,2013-12-02T16:00:00Z,30.6671,-87.9365,2.3,5.6,1111122 
DISL,ioos:station:DISL:MHPA:1,2013-12-02T16:30:00Z,30.6671,-87.9365,2.291,5.66,1111122 
DISL,ioos:station:DISL:MHPA:1,2013-12-02T17:00:00Z,30.6671,-87.9365,2.319,5.43,1111122 
DISL,ioos:station:DISL:MHPA:1,2013-12-02T17:30:00Z,30.6671,-87.9365,2.398,5.48,1111122 
DISL,ioos:station:DISL:MHPA:1,2013-12-02T18:00:00Z,30.6671,-87.9365,2.515,5.59,1111122 
DISL,ioos:station:DISL:MHPA:1,2013-12-02T18:30:00Z,30.6671,-87.9365,2.678,5.29,1111122 
DISL,ioos:station:DISL:MHPA:1,2013-12-02T19:00:00Z,30.6671,-87.9365,2.89,5.08,1111122 
DISL,ioos:station:DISL:MHPA:1,2013-12-02T19:30:00Z,30.6671,-87.9365,3.131,5.46,1111122 
DISL,ioos:station:DISL:MHPA:1,2013-12-02T20:00:00Z,30.6671,-87.9365,3.31,5.84,1111122 
DISL,ioos:station:DISL:MHPA:1,2013-12-02T20:30:00Z,30.6671,-87.9365,3.468,5.68,1111122 
DISL,ioos:station:DISL:MHPA:1,2013-12-02T21:00:00Z,30.6671,-87.9365,3.602,5.37,1111122 
DISL,ioos:station:DISL:MHPA:1,2013-12-02T21:30:00Z,30.6671,-87.9365,3.726,5.09,1111122 
DISL,ioos:station:DISL:MHPA:1,2013-12-02T22:00:00Z,30.6671,-87.9365,3.902,4.71,1111122 
DISL,ioos:station:DISL:MHPA:1,2013-12-02T22:30:00Z,30.6671,-87.9365,4.055,4.12,1111122 
DISL,ioos:station:DISL:MHPA:1,2013-12-02T23:00:00Z,30.6671,-87.9365,4.116,5.71,1111122 
DISL,ioos:station:DISL:MHPA:1,2013-12-02T23:30:00Z,30.6671,-87.9365,4.179,5.62,1111122 
DISL,ioos:station:DISL:MHPA:1,2013-12-03T00:00:00Z,30.6671,-87.9365,4.35,4.99,1111122 
DISL,ioos:station:DISL:MHPA:1,2013-12-03T00:30:00Z,30.6671,-87.9365,4.489,5.19,1111122 
DISL,ioos:station:DISL:MHPA:1,2013-12-03T01:00:00Z,30.6671,-87.9365,4.612,5.07,1111122 
DISL,ioos:station:DISL:MHPA:1,2013-12-03T01:30:00Z,30.6671,-87.9365,4.742,4.81,1111122 
DISL,ioos:station:DISL:MHPA:1,2013-12-03T02:00:00Z,30.6671,-87.9365,4.859,4.85,1111122 
DISL,ioos:station:DISL:MHPA:1,2013-12-03T02:30:00Z,30.6671,-87.9365,4.977,4.73,1111122 
DISL,ioos:station:DISL:MHPA:1,2013-12-03T03:00:00Z,30.6671,-87.9365,5.111,5.12,1111122 
DISL,ioos:station:DISL:MHPA:1,2013-12-03T03:30:00Z,30.6671,-87.9365,5.191,5.2,1111122 
DISL,ioos:station:DISL:MHPA:1,2013-12-03T04:00:00Z,30.6671,-87.9365,5.253,4.97,1111122 
DISL,ioos:station:DISL:MHPA:1,2013-12-03T04:30:00Z,30.6671,-87.9365,5.294,4.62,1111122 
DISL,ioos:station:DISL:MHPA:1,2013-12-03T05:00:00Z,30.6671,-87.9365,5.305,4.47,1111122 
DISL,ioos:station:DISL:MHPA:1,2013-12-03T05:30:00Z,30.6671,-87.9365,5.292,5.03,1111122 
DISL,ioos:station:DISL:MHPA:1,2013-12-03T06:00:00Z,30.6671,-87.9365,5.282,5.06,1111122 
DISL,ioos:station:DISL:MHPA:1,2013-12-03T06:30:00Z,30.6671,-87.9365,5.175,5.05,1111122 
DISL,ioos:station:DISL:MHPA:1,2013-12-03T07:00:00Z,30.6671,-87.9365,5.082,5.45,1111122 
DISL,ioos:station:DISL:MHPA:1,2013-12-03T07:30:00Z,30.6671,-87.9365,4.928,5.22,1111122 
DISL,ioos:station:DISL:MHPA:1,2013-12-03T08:00:00Z,30.6671,-87.9365,4.77,5.24,1111122 
DISL,ioos:station:DISL:MHPA:1,2013-12-03T08:30:00Z,30.6671,-87.9365,4.602,4.93,1111122 
DISL,ioos:station:DISL:MHPA:1,2013-12-03T09:00:00Z,30.6671,-87.9365,4.412,4.92,1111122 
DISL,ioos:station:DISL:MHPA:1,2013-12-03T09:30:00Z,30.6671,-87.9365,4.236,5.29,1111122 
DISL,ioos:station:DISL:MHPA:1,2013-12-03T10:00:00Z,30.6671,-87.9365,4.073,5.28,1111122 
DISL,ioos:station:DISL:MHPA:1,2013-12-03T10:30:00Z,30.6671,-87.9365,3.948,5.04,1111122 
DISL,ioos:station:DISL:MHPA:1,2013-12-03T11:00:00Z,30.6671,-87.9365,3.822,4.78,1111122 
DISL,ioos:station:DISL:MHPA:1,2013-12-03T11:30:00Z,30.6671,-87.9365,3.721,4.65,1111122 
DISL,ioos:station:DISL:MHPA:1,2013-12-03T12:00:00Z,30.6671,-87.9365,3.618,4.8,1111122 
DISL,ioos:station:DISL:MHPA:1,2013-12-03T12:30:00Z,30.6671,-87.9365,3.491,4.69,1111122 
DISL,ioos:station:DISL:MHPA:1,2013-12-03T13:00:00Z,30.6671,-87.9365,3.385,4.77,1111122 
DISL,ioos:station:DISL:MHPA:1,2013-12-03T13:30:00Z,30.6671,-87.9365,3.291,4.7,1111122 
DISL,ioos:station:DISL:MHPA:1,2013-12-03T14:00:00Z,30.6671,-87.9365,3.198,4.85,1111122 
DISL,ioos:station:DISL:MHPA:1,2013-12-03T14:30:00Z,30.6671,-87.9365,3.125,4.92,1111122 
DISL,ioos:station:DISL:MHPA:1,2013-12-03T15:00:00Z,30.6671,-87.9365,3.071,5.31,1111122 
DISL,ioos:station:DISL:MHPA:1,2013-12-03T15:30:00Z,30.6671,-87.9365,3.011,4.87,1111122 
DISL,ioos:station:DISL:MHPA:1,2013-12-03T16:00:00Z,30.6671,-87.9365,2.976,2.44,1111122 
DISL,ioos:station:DISL:MHPA:1,2013-12-03T16:30:00Z,30.6671,-87.9365,2.942,2.56,1111122 
DISL,ioos:station:DISL:MHPA:1,2013-12-03T17:00:00Z,30.6671,-87.9365,2.912,2.08,1111122 
DISL,ioos:station:DISL:MHPA:1,2013-12-03T17:30:00Z,30.6671,-87.9365,2.932,1.76,1111122 
DISL,ioos:station:DISL:MHPA:1,2013-12-03T18:00:00Z,30.6671,-87.9365,2.969,1.77,1111122 
DISL,ioos:station:DISL:MHPA:1,2013-12-03T18:30:00Z,30.6671,-87.9365,3.056,1.76,1111122 
DISL,ioos:station:DISL:MHPA:1,2013-12-03T19:00:00Z,30.6671,-87.9365,3.173,1.76,1111122 
DISL,ioos:station:DISL:MHPA:1,2013-12-03T19:30:00Z,30.6671,-87.9365,3.325,1.71,1111122 
DISL,ioos:station:DISL:MHPA:1,2013-12-03T20:00:00Z,30.6671,-87.9365,3.455,1.74,1111122 
DISL,ioos:station:DISL:MHPA:1,2013-12-03T20:30:00Z,30.6671,-87.9365,3.599,1.77,1111122 
DISL,ioos:station:DISL:MHPA:1,2013-12-03T21:00:00Z,30.6671,-87.9365,3.743,1.79,1111122 
DISL,ioos:station:DISL:MHPA:1,2013-12-03T21:30:00Z,30.6671,-87.9365,3.852,1.81,1111122 
DISL,ioos:station:DISL:MHPA:1,2013-12-03T22:00:00Z,30.6671,-87.9365,3.972,1.75,1111122 
DISL,ioos:station:DISL:MHPA:1,2013-12-03T22:30:00Z,30.6671,-87.9365,4.09,1.75,1111122 
DISL,ioos:station:DISL:MHPA:1,2013-12-03T23:00:00Z,30.6671,-87.9365,4.186,1.8,1111122 
DISL,ioos:station:DISL:MHPA:1,2013-12-03T23:30:00Z,30.6671,-87.9365,4.29,1.87,1111122 
DISL,ioos:station:DISL:MHPA:1,2013-12-04T00:00:00Z,30.6671,-87.9365,4.393,1.84,1111122 
DISL,ioos:station:DISL:MHPA:1,2013-12-04T00:30:00Z,30.6671,-87.9365,4.467,1.81,1111122 
DISL,ioos:station:DISL:MHPA:1,2013-12-04T01:00:00Z,30.6671,-87.9365,4.551,5.11,1111122 
DISL,ioos:station:DISL:MHPA:1,2013-12-04T01:30:00Z,30.6671,-87.9365,4.654,2.49,1111122 
DISL,ioos:station:DISL:MHPA:1,2013-12-04T02:00:00Z,30.6671,-87.9365,4.81,1.85,1111122 
DISL,ioos:station:DISL:MHPA:1,2013-12-04T02:30:00Z,30.6671,-87.9365,4.938,1.96,1111122 
DISL,ioos:station:DISL:MHPA:1,2013-12-04T03:00:00Z,30.6671,-87.9365,5.034,1.97,1111122 
DISL,ioos:station:DISL:MHPA:1,2013-12-04T03:30:00Z,30.6671,-87.9365,5.16,1.9,1111122 
DISL,ioos:station:DISL:MHPA:1,2013-12-04T04:00:00Z,30.6671,-87.9365,5.223,2.32,1111122 
DISL,ioos:station:DISL:MHPA:1,2013-12-04T04:30:00Z,30.6671,-87.9365,5.317,2.13,1111122 
DISL,ioos:station:DISL:MHPA:1,2013-12-04T05:00:00Z,30.6671,-87.9365,5.346,2.13,1111122 
DISL,ioos:station:DISL:MHPA:1,2013-12-04T05:30:00Z,30.6671,-87.9365,5.322,2.18,1111122 
DISL,ioos:station:DISL:MHPA:1,2013-12-04T06:00:00Z,30.6671,-87.9365,5.304,3.83,1111122 
DISL,ioos:station:DISL:MHPA:1,2013-12-04T06:30:00Z,30.6671,-87.9365,5.236,4.08,1111122 
DISL,ioos:station:DISL:MHPA:1,2013-12-04T07:00:00Z,30.6671,-87.9365,5.153,4.43,1111122 
DISL,ioos:station:DISL:MHPA:1,2013-12-04T07:30:00Z,30.6671,-87.9365,5.055,3.2,1111122 
DISL,ioos:station:DISL:MHPA:1,2013-12-04T08:00:00Z,30.6671,-87.9365,4.956,2.99,1111122 
DISL,ioos:station:DISL:MHPA:1,2013-12-04T08:30:00Z,30.6671,-87.9365,4.789,4.25,1111122 
DISL,ioos:station:DISL:MHPA:1,2013-12-04T09:00:00Z,30.6671,-87.9365,4.642,3.87,1111122 
DISL,ioos:station:DISL:MHPA:1,2013-12-04T09:30:00Z,30.6671,-87.9365,4.485,3.51,1111122 
DISL,ioos:station:DISL:MHPA:1,2013-12-04T10:00:00Z,30.6671,-87.9365,4.321,3.16,1111122 
DISL,ioos:station:DISL:MHPA:1,2013-12-04T10:30:00Z,30.6671,-87.9365,4.17,3.56,1111122 
DISL,ioos:station:DISL:MHPA:1,2013-12-04T11:00:00Z,30.6671,-87.9365,4.025,3.1,1111122 
DISL,ioos:station:DISL:MHPA:1,2013-12-04T11:30:00Z,30.6671,-87.9365,3.872,3.52,1111122 
DISL,ioos:station:DISL:MHPA:1,2013-12-04T12:00:00Z,30.6671,-87.9365,3.74,3.01,1111122 
DISL,ioos:station:DISL:MHPA:1,2013-12-04T12:30:00Z,30.6671,-87.9365,3.613,3.16,1111122 
DISL,ioos:station:DISL:MHPA:1,2013-12-04T13:00:00Z,30.6671,-87.9365,3.49,3.49,1111122 
DISL,ioos:station:DISL:MHPA:1,2013-12-04T13:30:00Z,30.6671,-87.9365,3.378,3.26,1111122 
DISL,ioos:station:DISL:MHPA:1,2013-12-04T14:00:00Z,30.6671,-87.9365,3.28,3.18,1111122 
DISL,ioos:station:DISL:MHPA:1,2013-12-04T14:30:00Z,30.6671,-87.9365,3.19,2.88,1111122 
DISL,ioos:station:DISL:MHPA:1,2013-12-04T15:00:00Z,30.6671,-87.9365,3.098,3.56,1111122 
DISL,ioos:station:DISL:MHPA:1,2013-12-04T15:30:00Z,30.6671,-87.9365,3.017,3.45,1111122 
DISL,ioos:station:DISL:MHPA:1,2013-12-04T16:00:00Z,30.6671,-87.9365,2.951,3.2,1111122 
DISL,ioos:station:DISL:MHPA:1,2013-12-04T16:30:00Z,30.6671,-87.9365,2.899,2.85,1111122 
DISL,ioos:station:DISL:MHPA:1,2013-12-04T17:00:00Z,30.6671,-87.9365,2.886,2.82,1111122 
DISL,ioos:station:DISL:MHPA:1,2013-12-04T17:30:00Z,30.6671,-87.9365,2.861,1.86,1111122 
DISL,ioos:station:DISL:MHPA:1,2013-12-04T18:00:00Z,30.6671,-87.9365,2.903,1.47,1111122 
DISL,ioos:station:DISL:MHPA:1,2013-12-04T18:30:00Z,30.6671,-87.9365,2.93,1.36,1111122 
DISL,ioos:station:DISL:MHPA:1,2013-12-04T19:00:00Z,30.6671,-87.9365,2.953,1.3,1111122 
DISL,ioos:station:DISL:MHPA:1,2013-12-04T19:30:00Z,30.6671,-87.9365,3.07,1.32,1111122 
DISL,ioos:station:DISL:MHPA:1,2013-12-04T20:00:00Z,30.6671,-87.9365,3.249,1.39,1111122 
DISL,ioos:station:DISL:MHPA:1,2013-12-04T20:30:00Z,30.6671,-87.9365,3.366,1.4,1111122 
DISL,ioos:station:DISL:MHPA:1,2013-12-04T21:00:00Z,30.6671,-87.9365,3.47,1.68,1111122 
DISL,ioos:station:DISL:MHPA:1,2013-12-04T21:30:00Z,30.6671,-87.9365,3.632,1.64,1111122 
DISL,ioos:station:DISL:MHPA:1,2013-12-04T22:00:00Z,30.6671,-87.9365,3.74,1.59,1111122 
DISL,ioos:station:DISL:MHPA:1,2013-12-04T22:30:00Z,30.6671,-87.9365,3.908,1.5,1111122 
DISL,ioos:station:DISL:MHPA:1,2013-12-04T23:00:00Z,30.6671,-87.9365,4.001,1.55,1111122 
DISL,ioos:station:DISL:MHPA:1,2013-12-04T23:30:00Z,30.6671,-87.9365,4.108,1.54,1111122 
DISL,ioos:station:DISL:MHPA:1,2013-12-05T00:00:00Z,30.6671,-87.9365,4.229,3.58,1111122 
DISL,ioos:station:DISL:MHPA:1,2013-12-05T00:30:00Z,30.6671,-87.9365,4.347,1.54,1111122 
DISL,ioos:station:DISL:MHPA:1,2013-12-05T01:00:00Z,30.6671,-87.9365,4.442,1.56,1111122 
DISL,ioos:station:DISL:MHPA:1,2013-12-05T01:30:00Z,30.6671,-87.9365,4.598,1.39,1111122 
DISL,ioos:station:DISL:MHPA:1,2013-12-05T02:00:00Z,30.6671,-87.9365,4.74,1.41,1111122 
DISL,ioos:station:DISL:MHPA:1,2013-12-05T02:30:00Z,30.6671,-87.9365,4.841,1.45,1111122 
DISL,ioos:station:DISL:MHPA:1,2013-12-05T03:00:00Z,30.6671,-87.9365,4.93,1.51,1111122 
DISL,ioos:station:DISL:MHPA:1,2013-12-05T03:30:00Z,30.6671,-87.9365,5.061,2.76,1111122 
DISL,ioos:station:DISL:MHPA:1,2013-12-05T04:00:00Z,30.6671,-87.9365,5.17,3.33,1111122 
DISL,ioos:station:DISL:MHPA:1,2013-12-05T04:30:00Z,30.6671,-87.9365,5.261,2.04,1111122 
DISL,ioos:station:DISL:MHPA:1,2013-12-05T05:00:00Z,30.6671,-87.9365,5.347,1.55,1111122 
DISL,ioos:station:DISL:MHPA:1,2013-12-05T05:30:00Z,30.6671,-87.9365,5.412,1.9,1111122 
DISL,ioos:station:DISL:MHPA:1,2013-12-05T06:00:00Z,30.6671,-87.9365,5.443,1.42,1111122 
DISL,ioos:station:DISL:MHPA:1,2013-12-05T06:30:00Z,30.6671,-87.9365,5.405,1.55,1111122 
DISL,ioos:station:DISL:MHPA:1,2013-12-05T07:00:00Z,30.6671,-87.9365,5.386,1.47,1111122 
DISL,ioos:station:DISL:MHPA:1,2013-12-05T07:30:00Z,30.6671,-87.9365,5.301,1.62,1111122 
DISL,ioos:station:DISL:MHPA:1,2013-12-05T08:00:00Z,30.6671,-87.9365,5.198,1.51,1111122 
DISL,ioos:station:DISL:MHPA:1,2013-12-05T08:30:00Z,30.6671,-87.9365,5.083,1.59,1111122 
DISL,ioos:station:DISL:MHPA:1,2013-12-05T09:00:00Z,30.6671,-87.9365,4.961,1.56,1111122 
DISL,ioos:station:DISL:MHPA:1,2013-12-05T09:30:00Z,30.6671,-87.9365,4.814,1.55,1111122 
DISL,ioos:station:DISL:MHPA:1,2013-12-05T10:00:00Z,30.6671,-87.9365,4.677,1.54,1111122 
DISL,ioos:station:DISL:MHPA:1,2013-12-05T10:30:00Z,30.6671,-87.9365,4.508,1.54,1111122 
DISL,ioos:station:DISL:MHPA:1,2013-12-05T11:00:00Z,30.6671,-87.9365,4.369,1.59,1111122 
DISL,ioos:station:DISL:MHPA:1,2013-12-05T11:30:00Z,30.6671,-87.9365,4.245,1.57,1111122 
DISL,ioos:station:DISL:MHPA:1,2013-12-05T12:00:00Z,30.6671,-87.9365,4.115,1.48,1111122 
DISL,ioos:station:DISL:MHPA:1,2013-12-05T12:30:00Z,30.6671,-87.9365,3.993,1.4,1111122 
DISL,ioos:station:DISL:MHPA:1,2013-12-05T13:00:00Z,30.6671,-87.9365,3.856,1.37,1111122 
DISL,ioos:station:DISL:MHPA:1,2013-12-05T13:30:00Z,30.6671,-87.9365,3.733,1.55,1111122 
DISL,ioos:station:DISL:MHPA:1,2013-12-05T14:00:00Z,30.6671,-87.9365,3.654,1.39,1111122 
DISL,ioos:station:DISL:MHPA:1,2013-12-05T14:30:00Z,30.6671,-87.9365,3.554,1.38,1111122 
DISL,ioos:station:DISL:MHPA:1,2013-12-05T15:00:00Z,30.6671,-87.9365,3.455,1.39,1111122 
DISL,ioos:station:DISL:MHPA:1,2013-12-05T15:30:00Z,30.6671,-87.9365,3.365,1.42,1111122 
DISL,ioos:station:DISL:MHPA:1,2013-12-05T16:00:00Z,30.6671,-87.9365,3.315,1.44,1111122 
DISL,ioos:station:DISL:MHPA:1,2013-12-05T16:30:00Z,30.6671,-87.9365,3.236,1.43,1111122 
DISL,ioos:station:DISL:MHPA:1,2013-12-05T17:00:00Z,30.6671,-87.9365,3.195,1.44,1111122 
DISL,ioos:station:DISL:MHPA:1,2013-12-05T17:30:00Z,30.6671,-87.9365,3.202,1.44,1111122 
DISL,ioos:station:DISL:MHPA:1,2013-12-05T18:00:00Z,30.6671,-87.9365,3.126,1.4,1111122 
DISL,ioos:station:DISL:MHPA:1,2013-12-05T18:30:00Z,30.6671,-87.9365,3.073,1.43,1111122 
DISL,ioos:station:DISL:MHPA:1,2013-12-05T19:00:00Z,30.6671,-87.9365,3.063,1.41,1111122 
DISL,ioos:station:DISL:MHPA:1,2013-12-05T19:30:00Z,30.6671,-87.9365,3.072,1.4,1111122 
DISL,ioos:station:DISL:MHPA:1,2013-12-05T20:00:00Z,30.6671,-87.9365,3.166,1.41,1111122 
DISL,ioos:station:DISL:MHPA:1,2013-12-05T20:30:00Z,30.6671,-87.9365,3.257,1.45,1111122 
DISL,ioos:station:DISL:MHPA:1,2013-12-05T21:00:00Z,30.6671,-87.9365,3.321,1.39,1111122 
DISL,ioos:station:DISL:MHPA:1,2013-12-05T21:30:00Z,30.6671,-87.9365,3.467,1.42,1111122 
DISL,ioos:station:DISL:MHPA:1,2013-12-05T22:00:00Z,30.6671,-87.9365,3.592,1.52,1111122 
DISL,ioos:station:DISL:MHPA:1,2013-12-05T22:30:00Z,30.6671,-87.9365,3.717,1.46,1111122 
DISL,ioos:station:DISL:MHPA:1,2013-12-05T23:00:00Z,30.6671,-87.9365,3.889,1.45,1111122 
DISL,ioos:station:DISL:MHPA:1,2013-12-05T23:30:00Z,30.6671,-87.9365,4.001,1.43,1111122 
DISL,ioos:station:DISL:MHPA:1,2013-12-06T00:00:00Z,30.6671,-87.9365,4.124,1.47,1111122 
DISL,ioos:station:DISL:MHPA:1,2013-12-06T00:30:00Z,30.6671,-87.9365,4.223,1.47,1111122 
DISL,ioos:station:DISL:MHPA:1,2013-12-06T01:00:00Z,30.6671,-87.9365,4.308,1.47,1111122 
DISL,ioos:station:DISL:MHPA:1,2013-12-06T01:30:00Z,30.6671,-87.9365,4.387,1.47,1111122 
DISL,ioos:station:DISL:MHPA:1,2013-12-06T02:00:00Z,30.6671,-87.9365,4.497,1.47,1111122 
DISL,ioos:station:DISL:MHPA:1,2013-12-06T02:30:00Z,30.6671,-87.9365,4.596,1.47,1111122 
DISL,ioos:station:DISL:MHPA:1,2013-12-06T03:00:00Z,30.6671,-87.9365,4.711,1.47,1111122 
DISL,ioos:station:DISL:MHPA:1,2013-12-06T03:30:00Z,30.6671,-87.9365,4.851,1.47,1111122 
DISL,ioos:station:DISL:MHPA:1,2013-12-06T04:00:00Z,30.6671,-87.9365,4.937,1.48,1111122 
DISL,ioos:station:DISL:MHPA:1,2013-12-06T04:30:00Z,30.6671,-87.9365,5.07,1.48,1111122 
DISL,ioos:station:DISL:MHPA:1,2013-12-06T05:00:00Z,30.6671,-87.9365,5.166,1.5,1111122 
DISL,ioos:station:DISL:MHPA:1,2013-12-06T05:30:00Z,30.6671,-87.9365,5.235,1.51,1111122 
DISL,ioos:station:DISL:MHPA:1,2013-12-06T06:00:00Z,30.6671,-87.9365,5.311,1.51,1111122 
DISL,ioos:station:DISL:MHPA:1,2013-12-06T06:30:00Z,30.6671,-87.9365,5.334,1.52,1111122 
DISL,ioos:station:DISL:MHPA:1,2013-12-06T07:00:00Z,30.6671,-87.9365,5.358,1.53,1111122 
DISL,ioos:station:DISL:MHPA:1,2013-12-06T07:30:00Z,30.6671,-87.9365,5.35,1.54,1111122 
DISL,ioos:station:DISL:MHPA:1,2013-12-06T08:00:00Z,30.6671,-87.9365,5.313,1.52,1111122 
DISL,ioos:station:DISL:MHPA:1,2013-12-06T08:30:00Z,30.6671,-87.9365,5.243,1.5,1111122 
DISL,ioos:station:DISL:MHPA:1,2013-12-06T09:00:00Z,30.6671,-87.9365,5.143,1.45,1111122 
DISL,ioos:station:DISL:MHPA:1,2013-12-06T09:30:00Z,30.6671,-87.9365,5.053,1.52,1111122 
DISL,ioos:station:DISL:MHPA:1,2013-12-06T10:00:00Z,30.6671,-87.9365,4.956,1.5,1111122 
DISL,ioos:station:DISL:MHPA:1,2013-12-06T10:30:00Z,30.6671,-87.9365,4.806,1.5,1111122 
DISL,ioos:station:DISL:MHPA:1,2013-12-06T11:00:00Z,30.6671,-87.9365,4.676,1.5,1111122 
DISL,ioos:station:DISL:MHPA:1,2013-12-06T11:30:00Z,30.6671,-87.9365,4.579,1.51,1111122 
DISL,ioos:station:DISL:MHPA:1,2013-12-06T12:00:00Z,30.6671,-87.9365,4.46,1.5,1111122 
DISL,ioos:station:DISL:MHPA:1,2013-12-06T12:30:00Z,30.6671,-87.9365,4.322,1.5,1111122 
DISL,ioos:station:DISL:MHPA:1,2013-12-06T13:00:00Z,30.6671,-87.9365,4.188,1.49,1111122 
DISL,ioos:station:DISL:MHPA:1,2013-12-06T13:30:00Z,30.6671,-87.9365,4.068,1.5,1111122 
DISL,ioos:station:DISL:MHPA:1,2013-12-06T14:00:00Z,30.6671,-87.9365,3.937,1.49,1111122 
DISL,ioos:station:DISL:MHPA:1,2013-12-06T14:30:00Z,30.6671,-87.9365,3.802,1.47,1111122 
DISL,ioos:station:DISL:MHPA:1,2013-12-06T15:00:00Z,30.6671,-87.9365,3.698,1.47,1111122 
DISL,ioos:station:DISL:MHPA:1,2013-12-06T15:30:00Z,30.6671,-87.9365,3.598,1.47,1111122 